Denver Centennial, CO

3:30 PM MDT on July 20, 2017 (GMT -0600)
Centennial

Weather History for KAPA - July, 2014

Change the Weather History Date:

Tuesday, July 15, 2014

  Actual Average Record
Temperature  
Mean Temperature 68 °F -  
Max Temperature 78 °F 86 °F 95 °F (1997)
Min Temperature 57 °F 57 °F 54 °F (2001)
Cooling Degree Days 3    
Month to date cooling degree days 119  
Growing Degree Days 16 (Base 50)    
Moisture  
Dew Point 56 °F    
Average Humidity 70    
Maximum Humidity 90    
Minimum Humidity 50    
Precipitation  
Precipitation 0.03 in - - ()
Month to date precipitation 1.58  
Year to date precipitation 7.18  
Sea Level Pressure  
Sea Level Pressure 30.08 in    
Wind  
Wind Speed 7 mph (NW)    
Max Wind Speed 18 mph    
Max Gust Speed 25 mph    
Visibility 9 miles    
Events Rain , Thunderstorm    
Averages and records for this station are not official NWS values.
T = Trace of Precipitation, MM = Missing Value Source: NWS Daily Summary

Daily Weather History Graph

Daily Weather History Graph

Search for Another Location

Airport or City:

Trip Planner

Search our weather history database for the weather conditions in past years. The results will help you decide how hot, cold, wet, or windy it might be!

Date:

Astronomy

Jul. 15, 2014 Rise Set
Actual Time 5:44 AM MDT 8:25 PM MDT
Civil Twilight 5:12 AM MDT 8:57 PM MDT
Nautical Twilight 4:33 AM MDT 9:36 PM MDT
Astronomical Twilight 3:48 AM MDT 10:21 PM MDT
Moon 10:36 PM MDT (7/15) 9:40 AM MDT (7/15)
Length of Visible Light 15h 44m
Length of Day
14h 41m
Waning Gibbous, 85% of the Moon is Illuminated
Jul 15
Waning Gibbous
Jul 18
Last Quarter
Jul 26
New
Aug 3
First Quarter
Aug 10
Full

Hourly Weather History & Observations

Time (MDT) Temp. Dew Point Humidity Pressure Visibility Wind Dir Wind Speed Gust Speed Precip Events Conditions
12:53 AM 60.1 °F 55.0 °F 83% 30.14 in 10.0 mi SSE 11.5 mph - N/A   Mostly Cloudy
1:53 AM 60.1 °F 55.9 °F 86% 30.13 in 10.0 mi Calm Calm - N/A   Clear
2:53 AM 59.0 °F 55.9 °F 90% 30.10 in 10.0 mi Calm Calm - N/A   Partly Cloudy
3:53 AM 57.9 °F 54.0 °F 87% 30.08 in 10.0 mi South 5.8 mph - N/A   Clear
4:53 AM 57.9 °F 54.0 °F 87% 30.08 in 10.0 mi WSW 4.6 mph - N/A   Partly Cloudy
5:53 AM 59.0 °F 55.0 °F 87% 30.06 in 10.0 mi West 3.5 mph - N/A   Partly Cloudy
6:53 AM 60.1 °F 55.0 °F 83% 30.06 in 10.0 mi West 3.5 mph - N/A   Mostly Cloudy
7:53 AM 60.1 °F 57.0 °F 90% 30.08 in 7.0 mi North 6.9 mph - N/A   Mostly Cloudy
7:59 AM 61.0 °F 57.0 °F 87% 30.25 in 6.0 mi North 6.9 mph - N/A   Mostly Cloudy
8:18 AM 62.1 °F 57.0 °F 84% 30.25 in 6.0 mi North 6.9 mph - N/A   Haze
8:32 AM 62.1 °F 57.0 °F 84% 30.25 in 6.0 mi North 6.9 mph - N/A   Haze
8:53 AM 62.1 °F 57.0 °F 84% 30.08 in 5.0 mi North 5.8 mph - N/A   Haze
9:53 AM 64.0 °F 55.9 °F 75% 30.08 in 7.0 mi North 6.9 mph - N/A   Mostly Cloudy
10:08 AM 64.9 °F 55.9 °F 73% 30.24 in 7.0 mi Variable 5.8 mph - N/A   Mostly Cloudy
10:53 AM 68.0 °F 57.0 °F 68% 30.08 in 8.0 mi Variable 4.6 mph - N/A   Mostly Cloudy
11:53 AM 71.1 °F 57.0 °F 61% 30.03 in 7.0 mi NE 4.6 mph - N/A   Scattered Clouds
12:53 PM 73.9 °F 57.0 °F 55% 30.00 in 8.0 mi Variable 4.6 mph - N/A   Scattered Clouds
1:53 PM 75.0 °F 55.0 °F 50% 29.96 in 10.0 mi East 5.8 mph - N/A   Mostly Cloudy
2:53 PM 73.0 °F 55.0 °F 53% 30.00 in 10.0 mi North 15.0 mph - N/A   Mostly Cloudy
3:53 PM 73.0 °F 57.0 °F 57% 30.11 in 10.0 mi SSE 10.4 mph - 0.00 in   Mostly Cloudy
4:30 PM 71.1 °F 55.9 °F 59% 30.18 in 10.0 mi North 17.3 mph - 0.00 in Thunderstorm Thunderstorm
4:53 PM 69.1 °F 57.9 °F 68% 30.01 in 7.0 mi NNW 4.6 mph - 0.01 in Rain , Thunderstorm Light Thunderstorms and Rain
5:16 PM 68.0 °F 57.9 °F 70% 30.16 in 10.0 mi SW 6.9 mph - 0.00 in Rain Light Rain
5:53 PM 69.1 °F 57.9 °F 68% 30.00 in 10.0 mi NNE 10.4 mph 17.3 mph 0.01 in   Mostly Cloudy
6:53 PM 69.1 °F 59.0 °F 70% 29.97 in 8.0 mi SE 4.6 mph - N/A   Mostly Cloudy
7:53 PM 66.9 °F 51.1 °F 57% 29.99 in 10.0 mi SSW 13.8 mph - N/A   Overcast
8:53 PM 66.0 °F 51.1 °F 59% 29.99 in 10.0 mi South 3.5 mph - 0.00 in   Mostly Cloudy
10:53 PM 64.0 °F 53.1 °F 67% 29.95 in 10.0 mi SSE 9.2 mph - 0.00 in   Overcast
11:53 PM 66.9 °F 51.1 °F 57% 29.89 in 10.0 mi SSW 13.8 mph 20.7 mph 0.00 in   Mostly Cloudy